Tracking 19644 objects as of 25-Apr-2019
HD Live streaming from Space Station
objects crossing your sky now

THORAD AGENA D DEB

Track THORAD AGENA D DEB now!
10-day predictions


NORAD ID: 42539
Int'l Code: 1970-025SV
Perigee: 829.8 km
Apogee: 939.1 km
Inclination: 99.2 °
Period: 102.5 minutes
Semi major axis: 7255 km
RCS: Unknown
Launch date: April 8, 1970
Source: United States (US)
Launch site: AIR FORCE WESTERN TEST RANGE (AFWTR)

Note: This is SATELLITE DEBRIS
aabbcc
Your satellite tracking list
Your tracking list is empty




NASA's NSSDC Master Catalog

Two Line Element Set (TLE):
1 42539U 70025SV  19108.32718841  .00000508  00000-0  33619-3 0  9998
2 42539  99.1569 143.1583 0075345  57.1138 306.6305 14.04783335318360
Source of the keplerian elements: AFSPC